STARLINK-32348, 61631

Orbit data source: Space-Track

STARLINK-32348, 61631 is a payload satellite owned by SpaceX/Seattle (US) in LEO that was launched on Wed, 23 Oct 2024 UTC via an FALCON 9 launch vehicle from the Air Force Eastern Test Range (AFETR). Payload-class satellites include a variety of spacecraft equipped with specific instruments for various scientific and technological missions. These include communications satellites like Starlink; space stations such as the ISS; scientific satellites like the Hubble; Earth observation satellites from companies like Planet Labs, Umbra, and HawkEye 360; GPS; miniature CubeSats for education and research; and military/defense satellites.

Loading next visibility...
Identifier
61631, 2024-191L
Orbit
LEO
Country
Flag of USUS
Related business
Manufacturer
SpaceX/Seattle
Mission
Operational Commercial Communications
Bus & Motor
STARLINK V2M, Unknown motor
Mass
730 kg wet, ~700 kg dry
Launch date (UTC)
2024-10-23 (1 year ago)
Launch vehicle
FALCON 9
Launch site
Air Force Eastern Test Range (AFETR)
Object type
Payload
Rocket body
Debris
Shape & HBR
Box + 2 Pan, 17.7 m
Radar Cross Section
33.884 m², Large (>1 m²)

Expand to show TLE details & history
Last TLE update: 15 hours ago

TLE from 15 hours ago
0 STARLINK-32348
1 61631U 24191L   25352.14148976 -.00001538  00000-0 -46388-4 0  9993
2 61631  43.0033 258.6017 0000986 295.8186  64.2564 15.27578234 65027
Epoch: 2025-12-18T03:23Z
TLE epoch observation values (Epoch: 2025-12-18T03:23:44.715Z)
Latitude
-0°
Longitude
120.66413°
Altitude
482.536 km
Speed
7.626 km/s
True Right ascension
17h 14m 24s
True Declination
0° 00' 00"
Sunlit
Object was in daylight at epoch
Visualization orbit readout
Latitude
Unknown
Longitude
Unknown
Altitude
Unknown
Speed
Unknown
Apparent Right ascension
Unknown
Apparent Declination
Unknown
Sunlit
N/A
Visualization observer readout
Local Sidereal Time
17:42:41
Azimuth
Unknown
Elevation
Unknown
Doppler factor
Unknown
Orbital elements
Apogee altitude
485.676 km
Perigee altitude
484.322 km
Semi-major axis
6,863.136 km
Eccentricity
0.0001
Inclination
43.0033°
RAAN
258.6017°
Arg. of periapsis
295.8186°
True anomaly
64.26658°
Mean anomaly
64.2564°
Eccentric anomaly
64.26149°
Mean motion
3.81733 °/min
Orbital period
94.31 mins
BSTAR
-0.000046388
Loading maneuver chart data...
Computing Atmospheric mass density...
Loading historical data...
Loading historical data...
Loading historical data...
Loading historical data...
Loading historical data...
Loading historical data...
Loading historical data...

Documentation

Showing up to 5 results
|